1495936800.49,96,12.5,74426.0,0.33,-31.67,-32.19,0,*78
1495936801.74,97,12.5,74424.0,0.33,-31.85,-32.19,0,*75
1495936802.97,98,12.5,74428.0,0.33,-31.79,-32.19,0,*79
1495936804.16,99,12.5,74428.8,0.33,-31.67,-32.01,0,*7E
1495936805.42,100,12.5,74428.0,0.33,-31.85,-32.19,0,*4A
1495936806.68,101,12.5,74436.0,0.33,-31.85,-32.19,0,*4B
1495936807.88,102,12.5,74426.3,0.33,-31.79,-32.13,0,*41
1495936809.12,103,12.5,74428.5,0.33,-31.61,-32.01,0,*4A
1495936810.35,104,12.5,74428.0,0.33,-31.61,-32.01,0,*4D
1495936811.58,105,12.5,74426.8,0.33,-31.61,-32.01,0,*4C
1495936812.77,106,12.5,74424.3,0.33,-31.67,-32.13,0,*4A
1495936814.03,107,12.5,74420.5,0.33,-31.85,-32.29,0,*4E
1495936815.27,108,12.5,74420.8,0.33,-32.19,-32.51,0,*48
1495936816.49,109,12.5,74420.0,0.33,-32.19,-32.57,0,*4F
1495936817.69,110,12.5,74426.3,0.33,-32.35,-32.69,0,*44
1495936818.95,111,12.56,74428.8,0.33,-32.45,-32.75,0,*4F
1495936820.21,112,12.5,74420.5,0.33,-32.45,-32.85,0,*43
1495936821.43,113,12.5,74422.0,0.29,-32.19,-32.57,0,*4F
1495936822.63,114,12.5,74426.3,0.29,-32.35,-32.57,0,*46
1495936823.84,115,12.5,74424.8,0.31,-32.01,-32.45,0,*4A
1495936825.05,116,12.5,74424.0,0.31,-32.19,-32.51,0,*45
1495936826.26,117,12.5,74422.0,0.31,-32.19,-32.69,0,*4F
1495936827.49,118,12.5,74416.0,0.29,-32.35,-32.79,0,*46
1495936828.72,119,12.5,74416.0,0.29,-32.57,-32.97,0,*43
1495936829.95,120,12.5,74414.8,0.29,-32.23,-32.63,0,*41
1495936831.21,121,12.5,74410.8,0.29,-32.19,-32.63,0,*49
1495936832.42,122,12.5,74418.5,0.31,-31.85,-32.35,0,*46
1495936833.63,123,12.5,74416.8,0.31,-31.61,-32.13,0,*49
1495936834.83,124,12.5,74418.8,0.31,-31.61,-32.13,0,*4E
1495936836.01,125,12.5,74422.8,0.31,-31.67,-32.13,0,*49
1495936837.22,126,12.5,74422.0,0.31,-31.61,-32.01,0,*4F
1495936838.43,127,12.5,74426.3,0.31,-31.45,-31.95,0,*46
1495936839.63,128,12.5,74424.0,0.31,-31.51,-32.13,0,*41
1495936840.87,129,12.5,74430.0,0.31,-31.85,-32.29,0,*40
1495936842.12,130,12.5,74420.5,0.33,-31.85,-32.19,0,*49
1495936843.34,131,12.5,74422.8,0.31,-31.79,-32.19,0,*49
1495936844.57,132,12.5,74434.0,0.31,-31.85,-32.19,0,*49
1495936845.81,133,12.5,74426.3,0.31,-31.61,-31.95,0,*45
1495936847.02,134,12.5,74430.0,0.31,-31.61,-32.01,0,*4C
1495936848.19,135,12.5,74422.3,0.31,-31.67,-32.13,0,*48
1495936849.4,136,12.5,74426.5,0.31,-31.85,-32.35,0,*43
1495936850.61,137,12.5,74422.0,0.35,-31.91,-32.23,0,*44
1495936851.8,138,12.5,74416.8,0.31,-32.01,-32.35,0,*42
1495936852.99,139,12.5,74416.8,0.31,-32.01,-32.51,0,*41
1495936854.2,140,12.5,74426.8,0.31,-32.19,-32.69,0,*4D
1495936855.43,141,12.5,74418.5,0.31,-32.29,-32.45,0,*41
1495936856.67,142,12.5,74416.0,0.29,-32.19,-32.51,0,*4D
1495936857.85,143,12.5,74416.3,0.31,-32.13,-32.51,0,*4F
1495936859.09,144,12.5,74416.3,0.29,-32.07,-32.39,0,*4A
1495936860.3,145,12.5,74420.5,0.31,-32.13,-32.45,0,*4C
1495936861.51,146,12.5,74416.5,0.31,-32.19,-32.51,0,*40
1495936862.72,147,12.5,74414.8,0.31,-32.29,-32.69,0,*49
1495936863.9,148,12.5,74412.3,0.31,-32.13,-32.69,0,*4F
1495936865.14,149,12.5,74414.5,0.29,-32.07,-32.51,0,*49
1495936866.37,150,12.5,74408.5,0.31,-31.95,-32.29,0,*4F
1495936867.61,151,12.5,74408.5,0.29,-31.85,-32.23,0,*4C
1495936868.82,152,12.5,74412.0,0.29,-32.01,-32.35,0,*47
1495936870.05,153,12.5,74408.5,0.31,-31.91,-32.29,0,*48
1495936871.26,154,12.5,74404.8,0.29,-32.01,-32.35,0,*41
1495936872.47,155,12.5,74410.3,0.31,-31.79,-32.19,0,*4B
1495936873.65,156,12.5,74414.8,0.31,-31.67,-32.13,0,*4D
1495936874.85,157,12.5,74414.5,0.31,-31.67,-32.29,0,*45
1495936876.06,158,12.5,74416.0,0.29,-32.01,-32.39,0,*41
1495936877.3,159,12.5,74418.0,0.29,-31.85,-32.23,0,*44
1495936878.53,160,12.5,74422.5,0.29,-31.85,-32.23,0,*4E
1495936879.74,161,12.5,74420.3,0.31,-31.79,-32.19,0,*4C
1495936880.95,162,12.5,74422.0,0.29,-31.67,-32.23,0,*40
1495936882.13,163,12.5,74424.3,0.31,-31.79,-32.13,0,*44
1495936883.36,164,12.5,74430.3,0.31,-31.51,-31.85,0,*45
1495936884.56,165,12.5,74424.0,0.31,-31.51,-32.01,0,*4B
1495936885.79,166,12.5,74430.0,0.29,-31.91,-32.23,0,*4D
1495936887.05,167,12.5,74428.3,0.29,-31.73,-32.07,0,*46
1495936888.24,168,12.5,74434.8,0.31,-31.79,-32.01,0,*4C
1495936889.41,169,12.5,74428.8,0.31,-31.67,-32.13,0,*41
1495936890.68,170,12.5,74430.3,0.29,-31.73,-32.07,0,*40
1495936891.88,171,12.5,74426.3,0.29,-31.67,-32.01,0,*42
1495936893.11,172,12.5,74426.8,0.31,-31.51,-31.95,0,*43
1495936894.34,173,12.5,74424.5,0.31,-31.51,-31.95,0,*42
1495936895.55,174,12.5,74422.0,0.31,-31.67,-32.19,0,*47
1495936896.75,175,12.5,74426.3,0.31,-31.51,-32.01,0,*4A
1495936897.99,176,12.5,74424.8,0.31,-31.61,-31.95,0,*44
1495936899.25,177,12.5,74426.5,0.29,-31.73,-32.19,0,*48
1495936900.43,178,12.5,74424.0,0.31,-31.67,-32.13,0,*41
1495936901.64,179,12.5,74424.3,0.31,-31.61,-32.01,0,*45
1495936902.82,180,12.5,74428.0,0.31,-31.67,-32.13,0,*46
1495936903.99,181,12.5,74424.5,0.31,-31.67,-32.13,0,*47
1495936905.23,182,12.5,74422.0,0.31,-31.85,-32.19,0,*42
1495936906.49,183,12.5,74416.0,0.29,-31.85,-32.19,0,*4A
1495936907.7,184,12.5,74416.5,0.31,-31.79,-32.19,0,*47
1495936908.89,185,12.5,74414.0,0.31,-31.79,-32.13,0,*4C
1495936910.12,186,12.5,74414.0,0.31,-31.85,-32.29,0,*45
1495936911.32,187,12.5,74420.5,0.31,-31.79,-32.29,0,*47
1495936912.56,188,12.5,74418.0,0.31,-31.95,-32.45,0,*40
1495936913.79,189,12.5,74414.5,0.31,-31.85,-32.29,0,*4A
1495936915.0,190,12.5,74416.5,0.31,-31.85,-32.35,0,*4F
1495936916.24,191,12.5,74412.0,0.29,-32.07,-32.39,0,*42
1495936917.44,192,12.5,74408.8,0.31,-31.85,-32.35,0,*4D
1495936918.66,193,12.5,74418.5,0.31,-32.01,-32.45,0,*44
1495936919.87,194,12.5,74424.5,0.31,-32.19,-32.51,0,*4F
1495936921.08,195,12.5,74424.0,0.31,-32.19,-32.51,0,*4E
1495936922.29,196,12.5,74420.0,0.31,-32.13,-32.45,0,*42
1495936923.47,197,12.5,74434.5,0.31,-32.13,-32.51,0,*46
1495936924.71,198,12.5,74422.5,0.29,-32.23,-32.75,0,*45
1495936925.95,199,12.5,74422.3,0.29,-32.07,-32.51,0,*44
1495936927.19,200,12.5,74418.8,0.29,-32.07,-32.51,0,*47
1495936928.4,201,12.5,74414.3,0.31,-31.79,-32.29,0,*4A
1495936929.64,202,12.5,74410.5,0.29,-32.07,-32.39,0,*4B
1495936930.84,203,12.5,74420.8,0.29,-31.67,-32.01,0,*44
1495936932.05,204,12.5,74422.0,0.31,-31.45,-31.85,0,*45
1495936933.31,205,12.5,74422.8,0.29,-31.73,-32.19,0,*4E
1495936934.51,206,12.5,74426.0,0.29,-31.67,-32.01,0,*41
1495936935.73,207,12.5,74424.8,0.31,-31.45,-31.95,0,*47
1495936936.96,208,12.5,74426.5,0.31,-31.51,-31.95,0,*4D
1495936938.17,209,12.5,74430.8,0.31,-31.45,-31.85,0,*48
1495936939.37,210,12.5,74424.3,0.31,-31.33,-31.85,0,*41
1495936940.58,211,12.5,74426.3,0.31,-31.61,-32.13,0,*4B
1495936941.79,212,12.5,74432.8,0.29,-31.67,-32.01,0,*44
1495936943.05,213,12.5,74432.0,0.29,-31.57,-32.07,0,*40
1495936944.26,214,12.5,74434.0,0.31,-31.45,-31.85,0,*44
1495936945.49,215,12.5,74430.0,0.29,-31.57,-32.01,0,*40
1495936946.73,216,12.5,74432.0,0.31,-31.73,-32.19,0,*45
1495936947.96,217,12.5,74430.8,0.29,-31.67,-32.07,0,*47
1495936949.17,218,12.5,74434.3,0.31,-31.61,-32.01,0,*41
1495936950.4,219,12.5,74432.0,0.29,-31.67,-32.19,0,*46
1495936951.61,220,12.5,74428.5,0.31,-31.61,-32.01,0,*4A
1495936952.79,221,12.5,74430.3,0.31,-31.67,-32.13,0,*4E
1495936954.02,222,12.5,74430.5,0.29,-31.73,-32.23,0,*42
1495936955.25,223,12.5,74438.0,0.31,-31.51,-31.95,0,*44
1495936956.48,224,12.5,74430.3,0.29,-31.67,-31.91,0,*4B
1495936957.72,225,12.5,74430.0,0.31,-31.61,-31.95,0,*41
1495936958.95,226,12.5,74424.8,0.29,-31.91,-32.23,0,*4A
1495936960.16,227,12.5,74442.8,0.31,-31.79,-32.19,0,*4D
1495936961.37,228,12.5,74426.0,0.31,-31.79,-32.19,0,*42
1495936962.61,229,12.5,74426.5,0.29,-31.91,-32.35,0,*42
1495936963.84,230,12.5,74424.0,0.31,-31.85,-32.29,0,*4B
1495936965.04,231,12.5,74420.3,0.31,-32.13,-32.45,0,*4C
1495936966.23,232,12.5,74420.5,0.31,-32.13,-32.51,0,*4A
1495936967.44,233,12.5,74424.0,0.31,-31.79,-32.29,0,*4B
1495936968.67,234,12.5,74430.0,0.29,-31.91,-32.35,0,*4E
1495936969.88,235,12.5,74428.3,0.29,-32.01,-32.35,0,*45
1495936971.11,236,12.5,74430.3,0.31,-31.95,-32.29,0,*4C
1495936972.35,237,12.5,74426.0,0.29,-31.91,-32.39,0,*41
1495936973.54,238,12.5,74422.3,0.31,-32.01,-32.39,0,*4D
1495936974.77,239,12.5,74420.8,0.29,-32.07,-32.39,0,*43
1495936976.0,240,12.5,74420.0,0.29,-32.19,-32.57,0,*4A
1495936977.23,241,12.5,74420.3,0.29,-32.19,-32.57,0,*4B
1495936978.43,242,12.5,74418.0,0.29,-32.23,-32.57,0,*41
1495936979.66,243,12.5,74422.0,0.29,-32.19,-32.57,0,*49
1495936980.89,244,12.5,74418.0,0.29,-32.07,-32.57,0,*41
1495936982.1,245,12.5,74426.5,0.27,-32.23,-32.75,0,*48
1495936983.36,246,12.5,74422.5,0.29,-32.19,-32.63,0,*4B
1495936984.59,247,12.5,74426.5,0.29,-32.23,-32.75,0,*44
1495936985.79,248,12.5,74424.5,0.27,-32.19,-32.57,0,*4C
1495936987.0,249,12.5,74426.3,0.27,-32.35,-32.75,0,*43
1495936988.21,250,12.5,74414.8,0.27,-32.23,-32.75,0,*4C
1495936989.45,251,12.5,74414.8,0.27,-32.19,-32.63,0,*43
1495936990.66,252,12.5,74410.3,0.23,-32.07,-32.57,0,*4C
1495936991.84,253,12.5,74430.0,0.27,-32.01,-32.57,0,*4F
1495936993.05,254,12.5,74420.5,0.27,-31.91,-32.35,0,*46
1495936994.26,255,12.5,74428.8,0.23,-31.91,-32.39,0,*4F
1495936995.47,256,12.5,74420.8,0.27,-31.91,-32.39,0,*48
1495936996.69,257,12.5,74426.0,0.23,-31.73,-32.39,0,*41
1495936997.9,258,12.5,74424.8,0.27,-31.73,-32.23,0,*41
1495936999.11,259,12.5,74418.3,0.23,-31.73,-32.23,0,*44
1495937000.35,260,12.5,74418.5,0.23,-31.73,-32.07,0,*48
1495937001.59,261,12.5,74418.8,0.23,-31.51,-31.95,0,*41
1495937002.79,262,12.5,74420.0,0.27,-31.33,-31.73,0,*4A
1495937004.05,263,12.5,74422.0,0.29,-31.39,-31.91,0,*43
1495937005.27,264,12.5,74424.3,0.29,-31.33,-31.73,0,*42
1495937006.48,265,12.5,74424.5,0.31,-31.45,-31.85,0,*42
1495937007.71,266,12.5,74416.5,0.29,-31.51,-32.01,0,*42
1495937008.97,267,12.5,74418.5,0.29,-31.57,-31.91,0,*4F
1495937010.2,268,12.5,74416.5,0.29,-31.51,-32.01,0,*4C
1495937011.46,269,12.5,74430.5,0.29,-31.39,-31.91,0,*49
1495937012.66,270,12.5,74422.0,0.27,-31.51,-32.01,0,*4B
1495937013.9,271,12.5,74422.0,0.27,-31.57,-32.07,0,*4A
1495937015.13,272,12.5,74422.3,0.29,-31.51,-32.01,0,*47
1495937016.36,273,12.5,74426.5,0.29,-31.67,-32.07,0,*45
1495937017.57,274,12.5,74422.5,0.29,-31.67,-32.23,0,*44
1495937018.74,275,12.5,74418.0,0.31,-31.67,-32.01,0,*4C
1495937020.0,276,12.5,74424.3,0.29,-31.57,-31.91,0,*4F
1495937021.26,277,12.5,74428.8,0.29,-31.51,-31.91,0,*48
1495937022.47,278,12.5,74430.8,0.31,-31.45,-31.85,0,*4E
1495937023.68,279,12.5,74420.8,0.31,-31.57,-32.01,0,*43
1495937024.93,280,12.5,74434.3,0.29,-31.51,-31.91,0,*40
1495937026.16,281,12.5,74428.5,0.29,-31.67,-32.07,0,*48
1495937027.34,282,12.5,74424.5,0.31,-31.67,-32.01,0,*44
1495937028.6,283,12.5,74424.8,0.29,-31.51,-31.85,0,*46
1495937029.86,284,12.5,74420.5,0.29,-31.57,-31.91,0,*42
1495937031.06,285,12.5,74426.8,0.31,-31.45,-31.85,0,*4C
1495937032.24,286,12.5,74426.8,0.31,-31.33,-31.79,0,*4D
1495937033.48,287,12.5,74428.5,0.29,-31.57,-32.01,0,*4B
1495937034.74,288,12.5,74422.5,0.29,-31.57,-32.07,0,*42
1495937035.97,289,12.5,74428.0,0.29,-31.67,-31.91,0,*4C
1495937037.2,290,12.5,74432.0,0.29,-31.51,-32.01,0,*4B
1495937038.46,291,12.5,74426.0,0.29,-31.57,-31.95,0,*42
1495937039.69,292,12.5,74428.3,0.31,-31.51,-31.95,0,*4E
1495937040.93,293,12.5,74430.0,0.31,-31.51,-31.95,0,*4F
1495937042.16,294,12.5,74426.3,0.29,-31.67,-32.19,0,*43
1495937043.39,295,12.5,74430.0,0.29,-31.85,-32.23,0,*47
1495937044.63,296,12.5,74420.5,0.29,-31.67,-31.95,0,*46
1495937045.86,297,12.5,74426.0,0.29,-31.85,-32.23,0,*45
1495937047.13,298,12.5,74422.8,0.29,-31.73,-32.07,0,*45
1495937048.35,299,12.5,74420.0,0.29,-31.51,-32.01,0,*42
1495937049.56,300,12.5,74410.8,0.31,-31.61,-32.13,0,*4A
1495937050.77,301,12.5,74400.5,0.31,-31.79,-32.19,0,*48
1495937051.95,302,12.5,74404.0,0.31,-31.79,-32.35,0,*45
1495937053.16,303,12.5,74404.3,0.31,-31.67,-32.19,0,*45
1495937054.37,304,12.5,74404.8,0.29,-32.01,-32.35,0,*46
1495937055.61,305,12.5,74400.5,0.29,-31.85,-32.23,0,*4F
1495937056.84,306,12.5,74406.5,0.29,-31.91,-32.39,0,*42
1495937058.08,307,12.5,74400.3,0.29,-32.07,-32.39,0,*4F
1495937059.31,308,12.5,74400.3,0.29,-31.91,-32.35,0,*40
1495937060.58,309,12.5,74400.3,0.29,-31.73,-32.19,0,*43
1495937061.81,310,12.44,74398.3,0.29,-31.91,-32.35,0,*49
1495937063.02,311,12.5,74408.8,0.29,-32.01,-32.35,0,*42
1495937064.21,312,12.5,74414.8,0.31,-32.01,-32.35,0,*48
1495937065.44,313,12.5,74418.0,0.29,-31.91,-32.39,0,*46
1495937066.67,314,12.5,74420.5,0.29,-32.19,-32.57,0,*4A
1495937067.91,315,12.5,74418.3,0.29,-32.07,-32.39,0,*4C
1495937069.14,316,12.5,74414.8,0.29,-31.91,-32.35,0,*4F
1495937070.34,317,12.5,74422.5,0.31,-31.79,-32.29,0,*4C
1495937071.61,318,12.5,74426.3,0.29,-31.85,-32.19,0,*4A
1495937072.82,319,12.5,74430.0,0.27,-31.85,-32.23,0,*4C
1495937074.03,320,12.5,74434.0,0.27,-31.67,-32.19,0,*43
1495937075.21,321,12.44,74428.0,0.27,-31.67,-32.23,0,*4B
1495937076.42,322,12.5,74426.5,0.27,-31.85,-32.35,0,*43
1495937077.65,323,12.5,74434.8,0.29,-31.85,-32.23,0,*4B
1495937078.87,324,12.5,74424.8,0.27,-31.85,-32.35,0,*45
1495937080.07,325,12.5,74420.8,0.27,-31.67,-32.19,0,*46
1495937081.28,326,12.5,74426.8,0.27,-31.73,-32.23,0,*49
1495937082.53,327,12.5,74418.0,0.27,-31.73,-32.19,0,*41
1495937083.74,328,12.5,74420.8,0.27,-31.57,-32.01,0,*41
1495937084.97,329,12.5,74424.8,0.27,-31.57,-32.07,0,*46
1495937086.22,330,12.5,74422.3,0.27,-31.73,-32.07,0,*48
1495937087.47,331,12.5,74416.3,0.29,-31.51,-31.85,0,*4E
1495937088.7,332,12.5,74426.0,0.29,-31.51,-32.01,0,*42
1495937089.95,333,12.5,74422.3,0.29,-31.51,-31.85,0,*4C
1495937091.21,334,12.44,74418.3,0.29,-31.51,-31.91,0,*4E
1495937092.46,335,12.5,74420.0,0.29,-31.39,-31.91,0,*41
1495937093.72,336,12.5,74416.0,0.29,-31.39,-31.85,0,*47
1495937094.95,337,12.5,74422.5,0.29,-31.51,-32.01,0,*47
1495937096.2,338,12.5,74422.3,0.29,-31.51,-31.91,0,*42
1495937097.43,339,12.5,74426.3,0.29,-31.57,-32.01,0,*4F
1495937098.64,340,12.5,74422.8,0.31,-31.45,-31.85,0,*44
1495937099.82,341,12.44,74412.8,0.31,-31.29,-31.67,0,*43
1495937101.06,342,12.5,74416.8,0.31,-31.51,-31.95,0,*42
1495937102.29,343,12.5,74420.5,0.29,-31.57,-32.01,0,*42
1495937103.55,344,12.5,74420.0,0.29,-31.57,-32.07,0,*43
1495937104.81,345,12.5,74426.3,0.29,-31.57,-31.85,0,*4B
1495937105.99,346,12.5,74428.5,0.31,-31.33,-31.79,0,*40
1495937107.23,347,12.5,74424.8,0.31,-31.23,-31.61,0,*49
1495937108.43,348,12.5,74430.5,0.31,-31.33,-31.85,0,*4D
1495937109.64,349,12.5,74422.0,0.29,-31.33,-31.67,0,*49
1495937110.81,350,12.5,74428.8,0.31,-31.33,-31.67,0,*48
1495937112.03,351,12.44,74424.0,0.31,-31.45,-31.95,0,*45
1495937113.24,352,12.44,74416.5,0.31,-31.45,-31.85,0,*47
1495937114.42,353,12.44,74418.5,0.31,-31.29,-31.67,0,*40
1495937115.6,354,12.44,74416.5,0.31,-31.45,-31.79,0,*42
1495937116.83,355,12.5,74422.0,0.31,-31.51,-31.95,0,*44
1495937118.05,356,12.44,74430.0,0.31,-31.45,-31.95,0,*42
1495937119.23,357,12.5,74424.5,0.31,-31.45,-31.79,0,*41
1495937120.44,358,12.5,74420.5,0.31,-31.61,-32.13,0,*47
1495937121.67,359,12.44,74420.0,0.33,-31.61,-32.13,0,*44
1495937122.9,360,12.44,74418.8,0.33,-31.67,-32.19,0,*42
1495937124.13,361,12.44,74418.5,0.33,-31.67,-32.19,0,*43
1495937125.33,362,12.5,74420.0,0.31,-31.67,-32.19,0,*42
1495937126.54,363,12.44,74418.8,0.31,-31.61,-32.13,0,*4F
1495937127.75,364,12.44,74420.3,0.31,-31.67,-32.19,0,*44
1495937128.98,365,12.44,74420.3,0.29,-31.73,-32.23,0,*40
1495937130.19,366,12.44,74420.8,0.31,-31.79,-32.19,0,*49
1495937131.4,367,12.5,74424.3,0.31,-31.79,-32.29,0,*4B
1495937132.61,368,12.44,74414.0,0.31,-31.61,-32.13,0,*44
1495937133.81,369,12.44,74404.8,0.31,-31.61,-32.01,0,*46
1495937135.02,370,12.44,74402.5,0.31,-31.51,-31.79,0,*41
1495937136.27,371,12.44,74410.0,0.33,-31.51,-31.95,0,*40
1495937137.47,372,12.5,74418.8,0.33,-31.67,-32.13,0,*4B
1495937138.73,373,12.44,74404.5,0.33,-31.61,-31.95,0,*41
1495937139.96,374,12.5,74404.5,0.33,-31.51,-32.13,0,*48
1495937141.16,375,12.44,74404.0,0.33,-31.67,-32.13,0,*4C
1495937142.41,376,12.44,74408.0,0.33,-31.61,-31.91,0,*40
1495937143.64,377,12.44,74406.0,0.33,-31.61,-32.01,0,*4B
1495937144.84,378,12.44,74406.0,0.33,-31.67,-32.13,0,*41
1495937146.07,379,12.44,74412.8,0.33,-31.85,-32.35,0,*48
1495937147.33,380,12.44,74410.0,0.33,-31.95,-32.45,0,*48
1495937148.59,381,12.44,74410.3,0.33,-31.95,-32.45,0,*49
1495937149.85,382,12.44,74410.5,0.33,-31.85,-32.29,0,*41
1495937151.07,383,12.44,74414.0,0.33,-31.79,-32.29,0,*43
1495937152.3,384,12.5,74408.5,0.33,-31.79,-32.29,0,*44
1495937153.53,385,12.44,74404.8,0.33,-31.79,-32.29,0,*45
1495937154.74,386,12.5,74410.3,0.35,-31.79,-32.29,0,*40
1495937155.97,387,12.44,74412.3,0.33,-31.85,-32.35,0,*49
1495937157.18,388,12.44,74418.3,0.33,-32.01,-32.51,0,*4B
1495937158.43,389,12.5,74416.0,0.33,-31.85,-32.29,0,*4A
1495937159.65,390,12.5,74416.3,0.31,-32.01,-32.45,0,*45
1495937160.88,391,12.44,74416.0,0.29,-31.91,-32.39,0,*4C
1495937162.12,392,12.44,74416.5,0.29,-31.85,-32.35,0,*46
1495937163.32,393,12.44,74418.3,0.31,-31.67,-32.19,0,*4C
1495937164.56,394,12.44,74416.3,0.31,-31.61,-31.95,0,*4A
1495937165.76,395,12.5,74414.3,0.31,-31.51,-32.13,0,*45
1495937166.97,396,12.44,74400.8,0.31,-31.79,-32.19,0,*46
1495937168.21,397,12.44,74394.8,0.31,-31.95,-32.45,0,*4C
1495937169.44,398,12.44,74388.3,0.31,-31.95,-32.29,0,*49
1495937170.67,399,12.44,74410.0,0.31,-31.85,-32.29,0,*49
1495937171.88,400,12.44,74418.5,0.31,-31.67,-32.19,0,*41
1495937173.12,401,12.44,74416.5,0.31,-31.85,-32.19,0,*4C
1495937174.33,402,12.44,74426.8,0.31,-31.61,-32.13,0,*4F
1495937175.53,403,12.44,74422.5,0.31,-31.67,-32.19,0,*42
1495937176.71,404,12.44,74404.5,0.31,-31.67,-32.13,0,*4F
1495937177.92,405,12.44,74404.5,0.31,-31.45,-31.85,0,*42
1495937179.15,406,12.44,74404.0,0.33,-31.29,-31.61,0,*43
1495937180.35,407,12.44,74404.5,0.31,-31.51,-32.13,0,*49
1495937181.56,408,12.44,74410.8,0.31,-31.61,-32.01,0,*46
1495937182.79,409,12.44,74416.5,0.29,-31.67,-32.19,0,*41
1495937183.97,410,12.44,74418.0,0.31,-31.67,-32.13,0,*4A
1495937185.17,411,12.44,74426.0,0.31,-31.51,-32.01,0,*4D
1495937186.4,412,12.44,74432.5,0.29,-31.33,-31.73,0,*45
1495937187.58,413,12.44,74424.5,0.31,-31.29,-31.67,0,*43
1495937188.82,414,12.44,74418.5,0.33,-31.45,-31.95,0,*41
1495937190.04,415,12.44,74420.5,0.33,-31.51,-32.13,0,*48
1495937191.27,416,12.44,74426.8,0.33,-31.61,-32.01,0,*4B
1495937192.5,417,12.44,74424.3,0.33,-31.61,-32.13,0,*49
1495937193.73,418,12.44,74414.0,0.33,-31.61,-32.13,0,*46
1495937194.93,419,12.44,74428.3,0.33,-31.33,-31.79,0,*4F
1495937196.14,420,12.44,74412.8,0.33,-31.45,-32.01,0,*48
1495937197.38,421,12.44,74418.5,0.35,-31.39,-31.95,0,*4A
1495937198.58,422,12.44,74408.0,0.33,-31.45,-32.13,0,*49
1495937199.83,423,12.44,74412.5,0.33,-31.51,-31.85,0,*41
1495937201.06,424,12.44,74416.0,0.33,-31.33,-31.85,0,*42
1495937202.27,425,12.44,74418.8,0.33,-31.45,-31.79,0,*41
1495937203.47,426,12.44,74422.8,0.33,-31.29,-31.79,0,*48
1495937204.7,427,12.44,74424.8,0.35,-31.23,-31.57,0,*49
1495937205.94,428,12.44,74420.5,0.35,-31.23,-31.73,0,*40
1495937207.16,429,12.44,74420.8,0.37,-31.17,-31.57,0,*42
1495937208.4,430,12.44,74418.8,0.35,-31.23,-31.61,0,*4A
1495937209.61,431,12.44,74414.3,0.35,-31.29,-31.57,0,*44
1495937210.79,432,12.5,74416.5,0.35,-31.29,-31.79,0,*4B
1495937212.01,433,12.44,74416.8,0.35,-31.45,-32.07,0,*4A
1495937213.27,434,12.44,74422.8,0.37,-31.61,-32.07,0,*49
1495937214.48,435,12.44,74414.5,0.35,-31.57,-32.13,0,*4A
1495937215.68,436,12.44,74418.5,0.37,-31.79,-32.13,0,*47
1495937216.92,437,12.44,74422.0,0.35,-31.57,-32.07,0,*4D
1495937218.15,438,12.44,74410.3,0.33,-31.61,-32.01,0,*47
1495937219.38,439,12.44,74408.8,0.33,-31.61,-32.01,0,*46
1495937220.61,440,12.44,74414.5,0.35,-31.57,-31.91,0,*41
1495937221.85,441,12.44,74420.3,0.35,-31.57,-32.07,0,*4C
1495937223.06,442,12.44,74424.8,0.35,-31.39,-31.79,0,*4D
1495937224.28,443,12.44,74422.5,0.35,-31.45,-31.95,0,*45
1495937225.51,444,12.44,74412.3,0.33,-31.61,-32.01,0,*4C
1495937226.75,445,12.44,74416.3,0.35,-31.57,-32.07,0,*48
1495937228.0,446,12.44,74410.0,0.37,-31.57,-32.07,0,*49
1495937229.19,447,12.44,74426.0,0.35,-31.45,-31.79,0,*43
1495937230.42,448,12.44,74430.5,0.35,-31.39,-31.91,0,*41
1495937231.66,449,12.44,74428.3,0.35,-31.39,-31.91,0,*40
1495937232.84,450,12.44,74422.5,0.35,-31.45,-32.13,0,*4A
1495937234.08,451,12.44,74434.0,0.39,-31.57,-32.07,0,*41
1495937235.28,452,12.44,74426.0,0.37,-31.45,-31.79,0,*45
1495937236.49,453,12.44,74416.8,0.35,-31.23,-31.79,0,*46
1495937237.71,454,12.44,74424.3,0.35,-31.45,-32.07,0,*4B
1495937238.95,455,12.44,74424.0,0.35,-31.57,-32.07,0,*49
1495937240.19,456,12.44,74410.0,0.37,-31.45,-32.07,0,*4B
1495937241.39,457,12.44,74410.8,0.39,-31.51,-32.01,0,*47
1495937242.62,458,12.44,74406.3,0.37,-31.45,-31.95,0,*4D
1495937243.88,459,12.44,74408.3,0.37,-31.39,-31.91,0,*43
1495937245.1,460,12.44,74404.3,0.37,-31.05,-31.61,0,*49
1495937246.31,461,12.44,74402.5,0.37,-31.05,-31.45,0,*4E
1495937247.51,462,12.44,74418.3,0.37,-30.67,-31.01,0,*48
1495937248.72,463,12.44,74422.8,0.39,-31.01,-31.39,0,*4D
1495937249.94,464,12.44,74420.3,0.37,-31.39,-31.79,0,*4B
1495937251.18,465,12.44,74422.8,0.39,-31.51,-32.07,0,*40
1495937252.36,466,12.44,74426.5,0.39,-31.79,-32.23,0,*4F
1495937253.59,467,12.44,74426.5,0.39,-31.57,-32.07,0,*44
1495937254.85,468,12.44,74420.8,0.37,-31.23,-31.57,0,*40
1495937256.08,469,12.44,74420.0,0.37,-31.45,-31.95,0,*4F
1495937257.31,470,12.44,74434.3,0.39,-31.51,-31.85,0,*4D
1495937258.54,471,12.44,74432.0,0.39,-31.39,-31.91,0,*47
1495937259.77,472,12.44,74428.5,0.37,-31.61,-32.01,0,*4D
1495937261.0,473,12.44,74436.8,0.39,-31.51,-32.07,0,*47
1495937262.23,474,12.44,74436.8,0.37,-31.61,-32.13,0,*48
1495937263.49,475,12.44,74434.0,0.37,-31.57,-32.07,0,*49
1495937264.75,476,12.44,74438.0,0.37,-31.57,-31.91,0,*46
1495937266.01,477,12.44,74434.8,0.37,-31.57,-32.07,0,*4B
1495937267.23,478,12.44,74434.3,0.39,-31.39,-31.73,0,*42
1495937268.46,479,12.44,74432.3,0.37,-31.45,-31.73,0,*46
1495937269.69,480,12.44,74430.0,0.37,-31.29,-31.73,0,*4A
1495937270.89,481,12.44,74430.5,0.39,-31.57,-32.01,0,*4A
1495937272.1,482,12.44,74434.0,0.39,-31.33,-31.85,0,*44
1495937273.33,483,12.44,74430.8,0.37,-31.45,-31.91,0,*4F
1495937274.56,484,12.44,74424.8,0.39,-31.39,-31.73,0,*41
1495937275.76,485,12.44,74420.8,0.37,-31.45,-31.79,0,*4F
1495937276.96,486,12.44,74424.8,0.39,-31.39,-31.67,0,*46
1495937278.19,487,12.44,74422.3,0.39,-31.51,-31.85,0,*45
1495937279.39,488,12.44,74418.8,0.39,-31.33,-31.73,0,*47
1495937280.6,489,12.44,74418.3,0.39,-31.17,-31.51,0,*40
1495937281.8,490,12.44,74408.8,0.39,-31.33,-31.57,0,*48
1495937283.0,491,12.44,74406.5,0.39,-31.01,-31.39,0,*40
1495937284.19,492,12.44,74406.8,0.39,-30.83,-31.33,0,*42
1495937285.38,493,12.44,74396.5,0.41,-31.05,-31.33,0,*43
1495937286.58,494,12.44,74394.3,0.43,-31.17,-31.61,0,*42
1495937287.81,495,12.44,74398.5,0.41,-31.33,-31.85,0,*4D
1495937289.03,496,12.44,74406.0,0.41,-31.33,-31.85,0,*4E
1495937290.26,497,12.44,74410.8,0.41,-31.33,-31.85,0,*4F
1495937291.51,498,12.44,74412.5,0.41,-31.61,-32.19,0,*41
1495937292.72,499,12.44,74418.5,0.41,-31.45,-32.13,0,*4C
1495937293.94,500,12.44,74418.3,0.41,-31.61,-32.13,0,*4B
1495937295.19,501,12.44,74418.8,0.41,-31.85,-32.29,0,*49
1495937296.4,502,12.44,74418.8,0.43,-31.95,-32.35,0,*44
1495937297.61,503,12.44,74426.5,0.41,-32.01,-32.51,0,*4B
1495937298.84,504,12.44,74420.8,0.41,-31.79,-32.19,0,*4C
1495937300.07,505,12.44,74428.5,0.41,-31.79,-32.19,0,*4D
1495937301.32,506,12.44,74420.3,0.41,-31.85,-32.29,0,*4E
1495937302.57,507,12.44,74422.5,0.41,-31.85,-32.29,0,*4F
1495937303.78,508,12.44,74418.5,0.39,-31.85,-32.35,0,*42
1495937304.99,509,12.44,74412.8,0.39,-31.85,-32.23,0,*44
1495937306.22,510,12.44,74416.5,0.39,-31.85,-32.19,0,*45
1495937307.43,511,12.44,74414.5,0.39,-31.67,-32.07,0,*47
1495937308.64,512,12.44,74412.3,0.39,-31.85,-32.23,0,*4E
1495937309.84,513,12.44,74416.8,0.39,-31.67,-32.19,0,*4A
1495937311.05,514,12.44,74418.5,0.39,-31.67,-32.19,0,*4D
1495937312.25,515,12.44,74420.0,0.41,-31.45,-32.01,0,*4A
1495937313.49,516,12.44,74422.8,0.39,-31.73,-32.07,0,*45
1495937314.7,517,12.44,74420.0,0.39,-31.85,-32.23,0,*4B
1495937315.91,518,12.44,74422.0,0.39,-31.85,-32.35,0,*43
1495937317.11,519,12.44,74416.3,0.39,-31.67,-32.19,0,*40
1495937318.32,520,12.44,74418.5,0.39,-31.67,-32.19,0,*4A
1495937319.56,521,12.44,74422.5,0.39,-31.73,-32.19,0,*4E